Weather History for KLAN - August, 2013

Change the Weather History Date:

Friday, August 30, 2013

  Actual Average Record
Temperature  
Mean Temperature 78 °F 68 °F  
Max Temperature 87 °F 78 °F 97 °F (1881)
Min Temperature 69 °F 57 °F 30 °F (1863)
Degree Days  
Heating Degree Days 0 1  
Month to date heating degree days 19 26  
Since 1 June heating degree days 85 92  
Since 1 July heating degree days 35 37  
Cooling Degree Days 13 4  
Month to date cooling degree days 148 163  
Year to date cooling degree days 580 549  
Since 1 June cooling degree days 507 508  
Growing Degree Days 28 (Base 50)    
Moisture  
Dew Point 69 °F    
Average Humidity 73    
Maximum Humidity 90    
Minimum Humidity 55    
Precipitation  
Precipitation 0.04 in 0.11 in 1.55 in (1891)
Month to date precipitation 4.77 3.12  
Year to date precipitation 32.92 20.98  
Snow  
Snow 0.00 in 0.00 in 0.00 in ()
Month to date snowfall 0.0 0.0  
Since 1 June snowfall 0.0 0.0  
Since 1 July snowfall 0.0 0.0  
Snow Depth 0.00 in    
Sea Level Pressure  
Sea Level Pressure 29.87 in    
Wind  
Wind Speed 9 mph (SW)    
Max Wind Speed 21 mph    
Max Gust Speed 29 mph    
Visibility 8 miles    
Events Rain , Thunderstorm    
T = Trace of Precipitation, MM = Missing Value Source: NWS Daily Summary

Daily Weather History Graph

Daily Weather History Graph

Search for Another Location

Airport or City:

Trip Planner

Search our weather history database for the weather conditions in past years. The results will help you decide how hot, cold, wet, or windy it might be!

Date:

Astronomy

Aug. 30, 2013 Rise Set
Actual Time 7:01 AM EDT 8:15 PM EDT
Civil Twilight 6:31 AM EDT 8:44 PM EDT
Nautical Twilight 5:56 AM EDT 9:19 PM EDT
Astronomical Twilight 5:19 AM EDT 9:56 PM EDT
Moon 1:34 AM EDT (8/30) 4:34 PM EDT (8/30)
Length of Visible Light 14h 13m
Length of Day
13h 14m
Waning Crescent, 29% of the Moon is Illuminated
Aug 30
Waning Crescent
Sep 5
New
Sep 12
First Quarter
Sep 19
Full
Sep 26
Last Quarter

Hourly Weather History & Observations

Time (EDT) Temp. Heat Index Dew Point Humidity Pressure Visibility Wind Dir Wind Speed Gust Speed Precip Events Conditions
12:53 AM 71.1 °F - 68.0 °F 90% 30.01 in 10.0 mi Calm Calm - N/A   Clear
1:53 AM 72.0 °F - 66.9 °F 84% 30.00 in 7.0 mi South 4.6 mph - N/A   Clear
2:53 AM 71.1 °F - 66.9 °F 87% 29.99 in 6.0 mi South 3.5 mph - N/A   Clear
3:53 AM 70.0 °F - 66.0 °F 87% 29.99 in 6.0 mi SW 3.5 mph - N/A   Clear
4:53 AM 70.0 °F - 66.0 °F 87% 29.97 in 7.0 mi South 3.5 mph - N/A   Clear
5:53 AM 69.1 °F - 64.9 °F 87% 29.96 in 7.0 mi South 5.8 mph - N/A   Clear
6:53 AM 69.1 °F - 64.0 °F 84% 29.95 in 8.0 mi SSW 6.9 mph - N/A   Clear
7:53 AM 70.0 °F - 66.0 °F 87% 29.96 in 6.0 mi SSW 5.8 mph - N/A   Clear
8:53 AM 73.0 °F - 66.9 °F 81% 29.94 in 7.0 mi SSW 8.1 mph - N/A   Clear
9:53 AM 77.0 °F - 68.0 °F 74% 29.92 in 8.0 mi SSW 9.2 mph - N/A   Clear
10:53 AM 80.1 °F 82.3 °F 66.9 °F 64% 29.92 in 9.0 mi SW 12.7 mph - N/A   Clear
11:53 AM 82.0 °F 84.9 °F 68.0 °F 62% 29.90 in 9.0 mi SW 15.0 mph - N/A   Clear
12:53 PM 82.9 °F 85.4 °F 66.9 °F 58% 29.89 in 10.0 mi WSW 13.8 mph 21.9 mph N/A   Partly Cloudy
1:53 PM 84.9 °F 88.2 °F 68.0 °F 57% 29.86 in 10.0 mi SSW 16.1 mph 25.3 mph N/A   Scattered Clouds
2:53 PM 86.0 °F 90.1 °F 69.1 °F 57% 29.84 in 10.0 mi SW 13.8 mph 20.7 mph N/A   Partly Cloudy
3:53 PM 86.0 °F 89.4 °F 68.0 °F 55% 29.81 in 10.0 mi SSW 16.1 mph - N/A   Clear
4:53 PM 87.1 °F 91.3 °F 69.1 °F 55% 29.78 in 10.0 mi SW 17.3 mph - N/A   Scattered Clouds
5:53 PM 84.9 °F 88.8 °F 69.1 °F 59% 29.77 in 10.0 mi SW 12.7 mph 19.6 mph N/A   Clear
6:53 PM 82.9 °F 87.0 °F 70.0 °F 65% 29.76 in 10.0 mi SW 9.2 mph - N/A   Scattered Clouds
7:53 PM 81.0 °F 84.9 °F 71.1 °F 72% 29.76 in 10.0 mi SW 9.2 mph - 0.00 in   Mostly Cloudy
8:53 PM 78.1 °F - 73.0 °F 84% 29.79 in 7.0 mi West 6.9 mph - 0.00 in Rain Light Rain
9:07 PM 78.8 °F - 73.4 °F 83% 29.82 in 8.0 mi WNW 9.2 mph - 0.00 in Rain Light Rain
9:15 PM 77.0 °F - 73.4 °F 89% 29.81 in 7.0 mi West 4.6 mph - 0.01 in Rain , Thunderstorm Light Thunderstorms and Rain
9:53 PM 75.9 °F - 72.0 °F 87% 29.79 in 8.0 mi WNW 8.1 mph - 0.01 in Thunderstorm Thunderstorm
10:00 PM 75.2 °F - 71.6 °F 89% 29.80 in 8.0 mi NNW 6.9 mph - N/A   Partly Cloudy
10:53 PM 75.0 °F - 72.0 °F 90% 29.78 in 6.0 mi NW 4.6 mph - N/A   Mostly Cloudy
11:49 PM 75.2 °F - 71.6 °F 89% 29.81 in 6.0 mi NNE 5.8 mph - 0.02 in   Overcast
11:53 PM 75.0 °F - 71.1 °F 87% 29.79 in 6.0 mi NNE 9.2 mph - 0.02 in   Overcast